Location: Woodhurst
(52.3667°N, 0.0667°W)
Time: 17:05:33
(UTC+00:00)

BlueWalker 3 - Pass Details

Date: 19 May 2025
Orbit: 460 x 472 km, 53.2° (Epoch: 12 June)

Event Time Altitude Azimuth Distance (km) Brightness Sun altitude
Rises 21:01:19 0° 287° (WNW) 2,494 6.6 -8.2°
Reaches altitude 10° 21:03:30 10° 282° (WNW) 1,618 5.4 -8.5°
Maximum altitude 21:07:02 51° 206° (SSW) 596 2.1 -8.8°
Enters shadow 21:10:11 13° 132° (SE) 1,464 3.6 -9.1°
